Simultaneous Nadir Overpasses (SNOs) Predictions

Prediction of SNOs between GOES-16 and AQUA Satellite Orbit:

Table of predicted SNOs for the next 14.0 days since TLE Epoch: 7/31/2020
Index Date Time (GOES-16) GOES-16 Lat,Lon AQUA Lat,Lon Distance(km) Time Diff (sec)
1 08/01/2020 06:32:20 -0.04, -75.19 -0.33, -73.87 150.37 80
2 08/01/2020 18:51:03 0.04, -75.18 -0.77, -79.06 440.29 80
3 08/03/2020 06:20:08 -0.04, -75.19 -0.92, -70.90 486.95 80
4 08/03/2020 18:38:52 0.04, -75.19 -0.13, -76.11 103.51 80
5 08/05/2020 18:29:20 0.04, -75.20 0.46, -73.14 234.30 80
6 08/06/2020 06:47:56 -0.05, -75.21 0.61, -78.30 351.22 80
7 08/08/2020 06:38:25 -0.05, -75.24 -0.05, -75.35 12.72 80
8 08/10/2020 06:26:13 -0.05, -75.26 -0.64, -72.39 326.89 80
9 08/10/2020 18:44:57 0.05, -75.27 -0.47, -77.58 263.27 80
10 08/12/2020 18:35:26 0.05, -75.30 0.19, -74.63 76.46 80
11 08/14/2020 18:23:15 0.06, -75.33 0.85, -71.68 416.36 80
